Home   Weather   Nuremberg   Past weeks

Flag for Germany Past Weather in Nuremberg, Bavaria, Germany — Yesterday and Last 2 Weeks

Now
59 °F

Passing clouds.


Feels Like: 58 °F
Forecast: 40 / 55 °F
Wind: 6 mph from Southwest

Location: Nuernberg

Current Time: Apr 24, 2017 at 7:13:42 pm

Latest Report: Apr 24, 2017 at 6:50 pm


Visibility: N/A

Pressure: 29.86 "Hg

Humidity: 36%

Dew Point: 32 °F

Location of NurembergLocation

Past Weather in Nuremberg — Graph

°F

Nuremberg Temperature Yesterday

Maximum temperature yesterday: 48 °F (at 5:50 pm)
Minimum temperature yesterday: 36 °F (at 11:50 pm)
Average temperature yesterday: 42 °F

High & Low Weather Summary for the Past Weeks

 TemperatureHumidityPressure
High72 °F (Apr 10, 12:20 pm)100% (Apr 17, 11:50 am)30.54 "Hg (Apr 17, 11:50 am)
Low27 °F (Apr 20, 5:20 am)29% (Apr 10, 2:20 pm)29.86 "Hg (Apr 13, 2:20 am)
Average45 °F67%30.15 "Hg
* Reported Apr 9 6:20 pm — Apr 24 6:20 pm, Nuremberg, Weather by CustomWeather, © 2017

Note: Actual official high and low records may vary slightly from our data, if they occured in-between our weather recording intervals... More about our weather records

Advertising

Nuremberg Weather History for the Previous 24 Hours

Scroll right to see more
 ConditionsComfort  
Time TempWeatherWind HumidityBarometerVisibility
6:20 pm
Mon, Apr 24
59 °FPassing clouds.7 mph34%29.86 "HgN/A
5:50 pm59 °FPassing clouds.6 mph36%29.89 "HgN/A
5:20 pm59 °FPassing clouds.13 mph34%29.89 "HgN/A
4:50 pm59 °FSunny.7 mph31%29.92 "Hg10 mi
4:20 pm59 °FPassing clouds.8 mph31%29.92 "HgN/A
3:50 pm59 °FPassing clouds.9 mph34%29.95 "HgN/A
3:20 pm57 °FSunny.7 mph33%29.95 "Hg10 mi
2:50 pm57 °FPassing clouds.8 mph33%29.98 "HgN/A
2:20 pm55 °FSunny.7 mph33%29.98 "Hg10 mi
1:50 pm55 °FPassing clouds.9 mph36%30.01 "HgN/A
1:20 pm54 °FSunny.6 mph38%30.01 "Hg10 mi
12:50 pm54 °FSunny.8 mph41%30.04 "Hg10 mi
12:20 pm52 °FPassing clouds.7 mph38%30.04 "HgN/A
11:50 am50 °FSunny.8 mph40%30.07 "Hg10 mi
11:20 am50 °FScattered clouds.6 mph40%30.07 "HgN/A
10:50 am48 °FScattered clouds.6 mph43%30.09 "HgN/A
10:20 am48 °FScattered clouds.6 mph54%30.09 "HgN/A
9:50 am45 °FScattered clouds.3 mph57%30.09 "HgN/A
9:20 am43 °FSunny.2 mph61%30.09 "Hg10 mi
8:50 am39 °FSunny.2 mph70%30.12 "Hg10 mi
8:20 am37 °FPassing clouds.3 mph81%30.12 "HgN/A
7:50 am34 °FSunny.5 mph87%30.12 "Hg10 mi
7:20 am32 °FSunny.5 mph87%30.12 "Hg10 mi
6:50 am30 °FSunny.5 mph86%30.12 "Hg10 mi
5:50 am28 °FClear.3 mph93%30.12 "Hg10 mi
4:50 am30 °FClear.3 mph86%30.15 "Hg10 mi
4:20 am30 °FClear.2 mph86%30.15 "Hg10 mi
3:50 am30 °FPassing clouds.3 mph86%30.15 "HgN/A
3:31 am30 °FClear.2 mph86%30.18 "Hg10 mi
3:20 am32 °FClear.1 mph80%30.18 "Hg10 mi
2:50 am32 °FClear.2 mph80%30.18 "Hg10 mi
2:20 am30 °FClear.3 mph86%30.18 "Hg10 mi
1:50 am34 °FClear.3 mph81%30.18 "Hg10 mi
1:20 am34 °FClear.6 mph81%30.21 "Hg10 mi
12:50 am34 °FClear.5 mph81%30.21 "Hg10 mi
12:20 am36 °FClear.No wind75%30.21 "Hg10 mi
11:50 pm
Sun, Apr 23
36 °FClear.No wind75%30.21 "Hg10 mi
10:50 pm37 °FClear.No wind75%30.21 "Hg10 mi
10:30 pm39 °FClear.No wind65%30.21 "Hg10 mi
9:50 pm43 °FClear.No wind57%30.21 "Hg10 mi
9:33 pm43 °FClear.No wind57%30.21 "Hg10 mi
8:50 pm43 °FClear.2 mph61%30.21 "Hg10 mi
8:20 pm45 °FPassing clouds.6 mph53%30.21 "HgN/A
7:50 pm45 °FSunny.9 mph53%30.21 "Hg10 mi
7:20 pm45 °FSunny.12 mph53%30.21 "Hg10 mi
Weather by CustomWeather, © 2017

See weather overviewHow to use our weather pages